GSAT0203 (GALILEO 7) (40544 NORAD) Tracking and Keplerian Element Data

This shows tracking and keplerian element data for the satellite.

Feedback or suggestion? Click here.




ElementValue
Catalog40544
NameGSAT0203 (GALILEO 7)
Epoch Orbit2520
Epoch Day106.1121384
Epoch Year2019
RAAN53.2963
Inclination56.1281
Eccentricity0.0004311
Argument of Perigee280.2424
Mean Anonmoly79.6757
Mean Motion1.70474658
Decay Rate-5.8E-07
L11 40544U 15017A 19106.11213840 -.00000058 00000-0 00000+0 0 9991
L22 40544 56.1281 53.2963 0004311 280.2424 79.6757 1.70474658 25203

Live tracking and technical data element details for GSAT0203 (GALILEO 7) (NORAD 40544). GSAT0203 (GALILEO 7) can be tracked NOW for your location showing map with azimuth and elevation plus other details from your city location.

Track the satellite on the map from your city or location and see movement details for azimuth, elevation, latitude, longitude, range, height, and movement on the map or in text.







IsCatalogInMostPopularTable: catalog: 40544, numindb: 189
Update: records affected: 1



GetName: 40544 GSAT0203 (GALILEO 7)

Hit Count: updated at: Sat, 20 Apr 2019 00:27:46 GMT